User: anonymous
Location: Owatonna
(44.0840°N, 93.2260°W)
Time: 13:49:21
(UTC-05:00)
Language:

Cosmos 839 Rocket - Orbit

View from above orbital plane
View from above orbital plane
View from above satellite
View from above satellite

Ground track
Ground track

The orbit data is extracted from the following two-line orbital elements,

1 09013U 76067B   14241.41774212  .00000035  00000-0  30159-3 0  5354
2 09013 065.8659 192.1264 0706379 114.0695 019.9366 12.35305102720316
Epoch (UTC): 29 August 2014 10:01:32
Eccentricity: 0.0706379
inclination: 65.8659°
perigee height: 968 km
apogee height: 2085 km
right ascension of ascending node: 192.1264°
argument of perigee: 114.0695°
revolutions per day: 12.35305102
mean anomaly at epoch: 19.9366°
orbit number at epoch: 72031

The dashed part of the orbit path shows where the satellite is in the earth's shadow,  

DLR